Location: Banios
(43.0451°N, 0.2335°E)
Time: 08:54:51
(UTC+00:00)

A-11 Canister half - Pass Details

Date: 20 May 2021
Orbit: 1527 x 1681 km, 47.3° (Epoch: 22 June)

Event Time Altitude Azimuth Distance (km) Brightness Sun altitude
Rises 08:37:39 0° 257° (WSW) 4,704 11.2 42.8°
Reaches altitude 10° 08:40:41 10° 259° (W) 3,736 10.7 43.4°
Maximum altitude 08:50:12 77° 345° (NNW) 1,628 9.8 45.1°
Drops below altitude 10° 09:00:04 10° 72° (ENE) 3,862 11.8 46.8°
Sets 09:03:15 0° 74° (ENE) 4,869 12.2 47.3°
